Regional Weather Roundup
Issued by NWS Nashville, TN

Home | Current Version | Previous Version | Text Only | Print | Product List | Glossary On
Versions: 1 2 3 4 5 6 7 8 9 10 11 12 13 14 15 16 17 18 19 20 21 22 23 24 25 26 27 28 29 30 31 32 33 34 35 36 37 38 39 40 41 42 43 44 45 46 47 48 49 50
516
ASUS44 KOHX 140510
RWROHX
MIDDLE TENNESSEE HOURLY WEATHER ROUNDUP
NATIONAL WEATHER SERVICE NASHVILLE TN
1100 PM CST SAT FEB 13 2016

NOTE: "FAIR" INDICATES FEW OR NO CLOUDS BELOW 12,000 FEET WITH
NO SIGNIFICANT WEATHER AND/OR OBSTRUCTIONS TO VISIBILITY.

* THESE REPORTS ARE NOT UNDER NWS QUALITY CONTROL AND MAY NOT
  REPORT WEATHER SUCH AS PRECIPITATION AND FOG.


TNZ005>011-023>034-057-059-062>066-078-080-140600
...NORTHERN MIDDLE TENNESSEE...

CITY           SKY/WX    TMP DP  RH WIND       PRES   REMARKS
CLARKSVILLE    CLOUDY    25   7  46 E6        30.43S WCI  18
CROSSVILLE     CLOUDY    20   4  50 NE8       30.33F WCI  10
DICKSON        CLOUDY    25   3  39 E3        30.39F
LEBANON        CLOUDY    23   6  48 CALM      30.40F
LIVINGSTON     CLOUDY    21   6  52 CALM      30.38
NASHVILLE      CLOUDY    27   3  35 E9        30.41F WCI  18
PORTLAND       CLOUDY   N/A N/A N/A NE5       30.40F
SMYRNA         CLOUDY    26   7  44 NE8       30.43F WCI  18
SPARTA         CLEAR     19  10  68 CALM      30.38F
$$
TNZ056-058-060-061-075>077-079-093>097-140600
...SOUTHERN MIDDLE TENNESSEE...

CITY           SKY/WX    TMP DP  RH WIND       PRES   REMARKS
COLUMBIA       MOCLDY    27   9  46 E5        30.39F WCI  21
FAYETTEVILLE   CLEAR     25   9  50 N5        30.38F WCI  19
LEWISBURG      CLOUDY    23   7  50 CALM      30.41S
MCMINNVILLE    CLEAR     21   7  53 NE5       30.38S WCI  15
SHELBYVILLE    CLOUDY    25  10  54 CALM      30.41S
TULLAHOMA      CLEAR     23   3  42 E6        30.37F WCI  16
WINCHESTER     CLEAR     23   9  54 N3        30.38F
$$


...KEY TO REMARKS...
VSB - VISIBILITY IN MILES
WCI - WIND CHILL INDEX
HX  - HEAT INDEX





USA.gov is the U.S. government's official web portal to all federal, state and local government web resources and services.